CZ-6A DEB, 54462

Orbit data source: Space-Track

CZ-6A DEB, 54462 is space debris in SSO originally from a launch on Fri, 11 Nov 2022 UTC launched from the Taiyaun Space Center, China (TSC). Debris objects in space refer to the collection of defunct objects orbiting the Earth. Examples of debris include non-operational satellites, rocket bodies, and fragments generated from explosions, collisions, or faulty payload assembly.

Loading next visibility...
Identifier
54462, 2022-151GN
Orbit
SSO
Country
Flag of CNCN / PRC
Related business
Manufacturer
SAST
Mission
Spacecraft
Bus & Motor
Unknown
Mass
Unknown
Launch date (UTC)
2022-11-11 (3 years ago)
Launch vehicle
Unknown
Launch site
Taiyaun Space Center, China (TSC)
Object type
Payload
Rocket body
Debris
Shape & HBR
Unknown shape, 1.1 m
Radar Cross Section
Small (<0.1 m²)

Expand to show TLE details & history
Last TLE update: 16 hours ago

TLE from 16 hours ago
0 CZ-6A DEB
1 54462U 22151GN  26129.85661353  .00003155  00000-0  16337-2 0  9995
2 54462  98.7054  92.7388 0155944  55.1554 306.4170 14.09501178178368
Epoch: 2026-05-09T20:33Z
TLE epoch observation values (Epoch: 2026-05-09T20:33:31.408Z)
Latitude
-0.00008°
Longitude
-83.3101°
Altitude
798.104 km
Speed
7.488 km/s
True Right ascension
06h 10m 57s
True Declination
0° 00' 00"
Sunlit
Object was in daylight at epoch
Visualization orbit readout
Latitude
Unknown
Longitude
Unknown
Altitude
Unknown
Speed
Unknown
Apparent Right ascension
Unknown
Apparent Declination
Unknown
Sunlit
N/A
Visualization observer readout
Local Sidereal Time
20:41:37
Azimuth
Unknown
Elevation
Unknown
Doppler factor
Unknown
Orbital elements
Apogee altitude
971.098 km
Perigee altitude
745.403 km
Semi-major axis
7,236.388 km
Eccentricity
0.01559
Inclination
98.7054°
RAAN
92.7388°
Arg. of periapsis
55.1554°
True anomaly
304.96231°
Mean anomaly
306.417°
Eccentric anomaly
305.69133°
Mean motion
3.52582 °/min
Orbital period
102.1 mins
BSTAR
0.0016337
Loading maneuver chart data...
Computing Atmospheric mass density...
Loading historical data...
Loading historical data...
Loading historical data...
Loading historical data...
Loading historical data...
Loading historical data...
Loading historical data...

Documentation

Showing up to 5 results
|